Weather History for Reading, PA

Change the Weather History Date:

Sunday, September 2, 2012

  Actual Average Record
Temperature  
Mean Temperature 72 °F 70 °F  
Max Temperature 77 °F 81 °F 102 °F (1953)
Min Temperature 67 °F 60 °F 45 °F (1970)
Degree Days  
Heating Degree Days 0 0  
Month to date heating degree days 0 0  
Since 1 July heating degree days 0 5  
Cooling Degree Days 7 6  
Month to date cooling degree days 22 12  
Year to date cooling degree days 1171 815  
Growing Degree Days 22 (Base 50)    
Moisture  
Dew Point 68 °F    
Average Humidity 86    
Maximum Humidity 93    
Minimum Humidity 78    
Precipitation  
Precipitation 0.37 in 0.10 in 2.17 in (1931)
Month to date precipitation 0.37 0.20  
Year to date precipitation 22.26 29.16  
Sea Level Pressure  
Sea Level Pressure 30.05 in    
Wind  
Wind Speed 2 mph (ESE)    
Max Wind Speed 8 mph    
Max Gust Speed 10 mph    
Visibility 7 miles    
Events Rain    
T = Trace of Precipitation, MM = Missing Value Source: NWS Daily Summary

Daily Weather History Graph

Daily Weather History Graph

Search for Another Location

Airport:

Trip Planner

Search our weather history database for the weather conditions in past years. The results will help you decide how hot, cold, wet, or windy it might be!

Date:

Astronomy

Sep. 02, 2012 Rise Set
Actual Time 6:32 AM EDT 7:33 PM EDT
Civil Twilight 6:04 AM EDT 8:01 PM EDT
Nautical Twilight 5:31 AM EDT 8:34 PM EDT
Astronomical Twilight 4:56 AM EDT 9:08 PM EDT
Moon 8:18 PM EDT (9/2) 8:39 AM EDT (9/2)
Length of Visible Light 13h 56m
Length of Day
13h 00m
Waning Gibbous, 95% of the Moon is Illuminated
Sep 2
Waning Gibbous
Sep 8
Last Quarter
Sep 15
New
Sep 22
First Quarter
Sep 29
Full

Hourly Weather History & Observations

Time (EDT) Temp. Dew Point Humidity Pressure Visibility Wind Dir Wind Speed Gust Speed Precip Events Conditions
12:54 AM 70.0 °F 64.0 °F 81% 30.05 in 10.0 mi West 4.6 mph - N/A   Clear
1:54 AM 68.0 °F 64.9 °F 90% 30.06 in 9.0 mi Calm Calm - N/A   Scattered Clouds
2:54 AM 68.0 °F 64.0 °F 87% 30.04 in 10.0 mi North 3.5 mph - N/A   Partly Cloudy
3:54 AM 68.0 °F 62.6 °F 83% 30.04 in 5.0 mi Calm Calm - N/A   Haze
4:46 AM 68.0 °F 62.6 °F 83% 30.03 in 10.0 mi Calm Calm - N/A   Overcast
4:54 AM 69.1 °F 63.0 °F 81% 30.04 in 10.0 mi Calm Calm - N/A   Overcast
5:54 AM 70.0 °F 64.9 °F 84% 30.04 in 7.0 mi Calm Calm - N/A   Overcast
6:54 AM 71.1 °F 66.0 °F 84% 30.05 in 7.0 mi Calm Calm - N/A   Overcast
7:54 AM 72.0 °F 66.9 °F 84% 30.06 in 5.0 mi Calm Calm - N/A   Haze
8:54 AM 73.0 °F 69.1 °F 87% 30.06 in 5.0 mi Calm Calm - 0.00 in   Overcast
9:14 AM 73.4 °F 69.8 °F 88% 30.06 in 1.8 mi Calm Calm - 0.07 in Rain Heavy Rain
9:29 AM 71.6 °F 69.8 °F 94% 30.07 in 2.5 mi NW 3.5 mph - 0.10 in Rain Rain
9:42 AM 71.6 °F 69.8 °F 94% 30.08 in 1.2 mi Calm Calm - 0.20 in Rain Heavy Rain
9:54 AM 72.0 °F 70.0 °F 93% 30.09 in 1.2 mi Calm Calm - 0.26 in Rain Rain
10:25 AM 71.6 °F 71.6 °F 100% 30.06 in 2.5 mi East 3.5 mph - 0.08 in Rain Light Rain
10:34 AM 73.4 °F 71.6 °F 94% 30.06 in 4.0 mi SE 4.6 mph - 0.08 in Rain Light Rain
10:54 AM 73.0 °F 71.1 °F 93% 30.07 in 4.0 mi South 3.5 mph - 0.08 in   Overcast
11:54 AM 73.4 °F 71.6 °F 94% 30.06 in 7.0 mi SSE 5.8 mph - N/A   Overcast
12:54 PM 75.0 °F 70.0 °F 84% 30.06 in 10.0 mi Calm Calm - 0.00 in   Overcast
1:54 PM 75.9 °F 70.0 °F 82% 30.06 in 10.0 mi SE 3.5 mph - N/A   Overcast
2:54 PM 75.9 °F 70.0 °F 82% 30.04 in 10.0 mi SE 6.9 mph - N/A   Overcast
3:52 PM 75.2 °F 68.0 °F 78% 30.02 in 10.0 mi Calm Calm - N/A   Overcast
3:54 PM 75.9 °F 68.0 °F 76% 30.03 in 10.0 mi Calm Calm - N/A   Overcast
4:54 PM 75.9 °F 68.0 °F 76% 30.01 in 10.0 mi Calm Calm - N/A   Overcast
5:54 PM 75.9 °F 68.0 °F 76% 30.02 in 10.0 mi Calm Calm - N/A   Overcast
6:54 PM 75.9 °F 69.1 °F 79% 30.03 in 10.0 mi Calm Calm - N/A   Mostly Cloudy
7:29 PM 73.4 °F 69.8 °F 88% 30.03 in 8.0 mi Calm Calm - N/A   Overcast
7:54 PM 73.9 °F 70.0 °F 87% 30.04 in 7.0 mi NE 3.5 mph - N/A   Overcast
8:26 PM 73.4 °F 69.8 °F 88% 30.04 in 5.0 mi Calm Calm - N/A   Mostly Cloudy
8:54 PM 73.9 °F 70.0 °F 87% 30.05 in 7.0 mi Calm Calm - N/A   Mostly Cloudy
9:16 PM 73.4 °F 69.8 °F 88% 30.06 in 6.0 mi Calm Calm - N/A   Mostly Cloudy
9:54 PM 73.9 °F 69.1 °F 85% 30.06 in 10.0 mi SSE 3.5 mph - N/A   Overcast
10:02 PM 73.4 °F 69.8 °F 88% 30.05 in 10.0 mi Calm Calm - N/A   Overcast
10:30 PM 73.4 °F 69.8 °F 88% 30.06 in 8.0 mi Calm Calm - N/A   Mostly Cloudy
10:54 PM 73.9 °F 69.1 °F 85% 30.07 in 10.0 mi Variable 4.6 mph - N/A   Overcast
11:54 PM 73.9 °F 68.0 °F 82% 30.07 in 10.0 mi East 3.5 mph - 0.00 in   Overcast